STARLINK-5732 (55572 NORAD) Tracking and Keplerian Element Data

This shows tracking and keplerian element data for the satellite.

Feedback or suggestion? Click here.




ElementValue
Catalog55572
NameSTARLINK-5732
Epoch Orbit130
Epoch Day84.91667824
Epoch Year2023
RAAN112.2024
Inclination42.997
Eccentricity0.0001194
Argument of Perigee266.9044
Mean Anonmoly285.4912
Mean Motion15.06172667
Decay Rate-0.01170162
L11 55572U 23020D 23084.91667824 -.01170162 00000+0 -85599-1 0 9997
L22 55572 42.9970 112.2024 0001194 266.9044 285.4912 15.06172667 1301



Live tracking and technical data element details for STARLINK-5732 (NORAD 55572). STARLINK-5732 can be tracked NOW for your location showing map with azimuth and elevation plus other details from your city location.







IsCatalogInMostPopularTable: catalog: 55572, numindb: -1

Insert: records affected: 1


GetName: 55572 STARLINK-5732

Hit Count: inserted at: Tue, 28 Mar 2023 03:17:04 GMT